Location: Siratepeler Tepesi
(39.1042°N, 32.0781°E)
Time: 05:41:27
(UTC+00:00)

Meteor 1-24 Rocket - Pass Details

Date: 11 April 2026
Orbit: 789 x 925 km, 81.2° (Epoch: 9 May)

Event Time Altitude Azimuth Distance (km) Brightness Sun altitude
Rises 17:26:33 0° 351° (N) 3,339 7.3 -12.3°
Reaches altitude 10° 17:28:54 10° 352° (N) 2,420 6.5 -12.7°
Maximum altitude 17:34:24 86° 82° (E) 846 3.7 -13.7°
Drops below altitude 10° 17:40:03 10° 171° (S) 2,492 5.8 -14.7°
Enters shadow 17:42:22 - 172° (S) 3,387 6.5 -15.1°
